Home   Weather   Viersen   Past weeks

Flag for Germany Past Weather in Viersen, North Rhine-Westphalia, Germany — Yesterday and Last 2 Weeks

Now
48 °F

Clear.


Feels Like: 43 °F
Forecast: 35 / 52 °F
Wind: 14 mph from Northwest

Location: Monchengladbach Airport

Current Time: Apr 25, 2017 at 8:44:44 pm

Latest Report: Apr 25, 2017 at 7:50 pm


Visibility: 10 mi

Pressure: 29.83 "Hg

Humidity: 40%

Dew Point: 25 °F

Location of ViersenLocation

Past Weather in Viersen — Graph

°F

Viersen Temperature Yesterday

Maximum temperature yesterday: 59 °F (at 2:20 pm)
Minimum temperature yesterday: 37 °F (at 7:50 am)
Average temperature yesterday: 55 °F

High & Low Weather Summary for the Past Weeks

 TemperatureHumidityPressure
High59 °F (Apr 21, 2:50 pm)100% (Apr 11, 8:20 am)30.63 "Hg (Apr 11, 8:20 am)
Low30 °F (Apr 20, 7:50 am)30% (Apr 20, 6:20 pm)29.74 "Hg (Apr 25, 8:20 am)
Average49 °F59%30.18 "Hg
* Reported Apr 10 7:20 pm — Apr 25 7:20 pm, Viersen, Weather by CustomWeather, © 2017

Note: Actual official high and low records may vary slightly from our data, if they occured in-between our weather recording intervals... More about our weather records

Advertising

Viersen Weather History for the Previous 24 Hours

Scroll right to see more
 ConditionsComfort  
Time TempWeatherWind HumidityBarometerVisibility
7:20 pm
Tue, Apr 25
48 °FPassing clouds.15 mph43%29.83 "HgN/A
6:50 pm48 °FPassing clouds.12 mph43%29.83 "HgN/A
6:20 pm48 °FPassing clouds.7 mph46%29.83 "HgN/A
5:50 pm48 °FPassing clouds.6 mph58%29.83 "HgN/A
5:20 pm46 °FScattered showers. Passing clouds.5 mph66%29.83 "HgN/A
4:50 pm46 °FScattered showers. Passing clouds.6 mph62%29.83 "HgN/A
4:20 pm46 °FScattered showers. Passing clouds.7 mph62%29.83 "HgN/A
3:50 pm46 °FScattered showers. Partly cloudy.9 mph57%29.83 "HgN/A
3:20 pm46 °FScattered showers. Passing clouds.6 mph66%29.80 "HgN/A
2:50 pm48 °FScattered showers. Passing clouds.15 mph58%29.80 "HgN/A
2:20 pm50 °FScattered showers. Passing clouds.12 mph54%29.80 "HgN/A
1:50 pm48 °FScattered showers. Passing clouds.9 mph62%29.80 "HgN/A
1:20 pm45 °FPassing clouds.18 mph61%29.80 "HgN/A
12:50 pm48 °FScattered showers. Passing clouds.13 mph58%29.80 "HgN/A
12:20 pm46 °FPassing clouds.14 mph53%29.80 "HgN/A
11:50 am46 °FScattered showers. Broken clouds.10 mph53%29.77 "HgN/A
11:20 am48 °FScattered clouds.12 mph50%29.77 "HgN/A
10:50 am46 °FScattered clouds.15 mph53%29.77 "HgN/A
10:20 am45 °FScattered clouds.14 mph57%29.77 "HgN/A
9:50 am45 °FPassing clouds.14 mph53%29.77 "HgN/A
9:20 am45 °FScattered clouds.13 mph66%29.77 "HgN/A
8:50 am45 °FScattered clouds.10 mph71%29.74 "HgN/A
8:20 am43 °FScattered clouds.7 mph87%29.74 "HgN/A
8:20 pm
Mon, Apr 24
57 °FPassing clouds.6 mph44%29.80 "HgN/A
Weather by CustomWeather, © 2017

See weather overviewHow to use our weather pages